Погода в Понтеведре

Испания     42°26′01″N   8°38′23″W
темп.,
°C
ветер,
м/с
пор.,
м/с
влажн.,
%
обл.,
%
осадки,
мм/ч
давл.,
гПа
погр.,
м
18 мая, ср
ср1823:00+15вюв1199100 0.3 102070
02:00+15ююз1199100 0.5 1019106
05:00+15ююв1199100 0.2 101871
08:00+15ююз1397100 0.3 1018108
11:00+14зюз1495100 0.9 1019370
14:00+14юв128999 1.0 1019192
17:00+18юз345150 0.0 1019934
20:00+17зюз225918 0.0 1019539
19 мая, чт
чт1923:00+12всв1193100 0.0 102013
02:00+11св1186100 0.0 102029
05:00+10св228493 0.0 101951
08:00+10св228094 0.0 102064
11:00+19ссз114898 0.0 1020580
14:00+21зюз3242100 0.0 10191010
17:00+21з3245100 0.0 1018772
20:00+19з2256100 0.0 1017279
20 мая, пт
пт2023:00+14вюв1181100 0.0 101816
02:00+13ссв2284100 0.0 101856
05:00+13ссв2280100 0.0 101847
08:00+13ссв248098 0.0 1019103
11:00+20ссв365423 0.0 1020543
14:00+26с34319 0.0 10191022
17:00+29ссз342831 0.0 10171260
20:00+23ссв5115299 0.0 1017464
21 мая, сб
сб2123:00+17св41077100 0.0 1018228
02:00+16св478312 0.0 1016126
05:00+15св358476 0.0 101597
08:00+17св358082 0.0 101380
11:00+27юз234798 0.0 1014363
14:00+34ююз122688 0.0 10121078
17:00+29зюз2339100 0.0 1012330
20:00+22ю236987 0.0 101087
22 мая, вс
вс2223:00+18ююз277961 0.1 1013165
02:00+16ююз129815 2.4 101256
05:00+15зсз249787 0.2 1013192
08:00+15в129758 0.3 1013116
11:00+17в119490 0.1 101384
14:00+18ююз2576100 0.2 1014753
17:00+18юз468474 0.2 1015612
20:00+17ююз238757 0.3 1016415